TimeEST,TemperatureF,Dew PointF,Humidity,Sea Level PressureIn,VisibilityMPH,Wind Direction,Wind SpeedMPH,Gust SpeedMPH,PrecipitationIn,Events,Conditions,WindDirDegrees,DateUTC
12:56 AM,32.0,24.1,73,30.07,10.0,NW,9.2,-,N/A,,Overcast,310,2012-11-04 04:56:00
1:56 AM,30.9,25.0,79,30.08,10.0,WNW,9.2,-,N/A,,Overcast,300,2012-11-04 05:56:00
1:56 AM,30.9,25.0,79,30.08,10.0,NW,8.1,-,N/A,,Overcast,310,2012-11-04 06:56:00
2:56 AM,30.9,26.1,82,30.08,10.0,NW,5.8,-,N/A,,Overcast,320,2012-11-04 07:56:00
3:08 AM,30.2,26.6,86,30.01,7.0,NNW,5.8,-,0.00,Snow,Light Snow,340,2012-11-04 08:08:00
3:19 AM,30.2,26.6,86,30.01,2.5,NNW,6.9,-,0.00,Snow,Light Snow,330,2012-11-04 08:19:00
3:26 AM,30.2,26.6,86,30.01,6.0,NNW,8.1,-,0.00,Snow,Light Snow,330,2012-11-04 08:26:00
3:56 AM,30.0,26.1,85,30.09,9.0,NNW,5.8,-,0.00,,Overcast,330,2012-11-04 08:56:00
4:24 AM,30.2,26.6,86,30.03,2.5,NNW,6.9,-,0.00,Snow,Light Snow,340,2012-11-04 09:24:00
4:34 AM,30.2,26.6,86,30.03,4.0,NW,5.8,-,0.00,Snow,Light Snow,320,2012-11-04 09:34:00
4:46 AM,30.2,26.6,86,30.03,10.0,NNW,5.8,-,0.00,,Overcast,330,2012-11-04 09:46:00
4:56 AM,30.0,26.1,85,30.10,4.0,NNW,8.1,-,0.00,Snow,Light Snow,330,2012-11-04 09:56:00
5:12 AM,30.2,26.6,86,30.04,2.0,NNW,6.9,-,0.01,Snow,Light Snow,340,2012-11-04 10:12:00
5:28 AM,30.2,26.6,86,30.04,1.2,NNW,5.8,-,0.01,Snow,Light Snow,330,2012-11-04 10:28:00
5:35 AM,30.2,26.6,86,30.04,2.5,NNW,5.8,-,0.01,Snow,Light Snow,340,2012-11-04 10:35:00
5:37 AM,30.2,26.6,86,30.04,4.0,NNW,6.9,-,0.01,Snow,Light Snow,340,2012-11-04 10:37:00
5:47 AM,30.2,26.6,86,30.03,9.0,North,5.8,-,0.01,,Overcast,350,2012-11-04 10:47:00
5:56 AM,30.0,27.0,88,30.10,7.0,NNW,5.8,-,0.01,Snow,Light Snow,340,2012-11-04 10:56:00
6:05 AM,30.2,26.6,86,30.03,8.0,North,5.8,-,0.00,Snow,Light Snow,360,2012-11-04 11:05:00
6:42 AM,28.4,26.6,93,30.02,10.0,North,4.6,-,0.00,,Overcast,360,2012-11-04 11:42:00
6:56 AM,28.9,26.1,89,30.10,10.0,NNW,4.6,-,0.00,,Overcast,340,2012-11-04 11:56:00
7:05 AM,28.4,26.6,93,30.03,10.0,NNW,6.9,-,N/A,,Overcast,340,2012-11-04 12:05:00
7:56 AM,30.0,25.0,82,30.11,9.0,Variable,5.8,-,0.00,Snow,Light Snow,0,2012-11-04 12:56:00
8:56 AM,30.0,24.1,79,30.10,10.0,NNW,8.1,-,N/A,,Overcast,340,2012-11-04 13:56:00
9:32 AM,30.2,24.8,80,30.03,7.0,NNW,6.9,-,0.00,Snow,Light Snow,330,2012-11-04 14:32:00
9:56 AM,30.9,25.0,79,30.10,10.0,NW,4.6,-,0.00,,Overcast,320,2012-11-04 14:56:00
10:14 AM,30.2,24.8,80,30.03,10.0,NNW,11.5,18.4,N/A,,Overcast,330,2012-11-04 15:14:00
10:56 AM,32.0,24.1,73,30.10,10.0,NNW,9.2,-,N/A,,Overcast,330,2012-11-04 15:56:00
11:17 AM,32.0,24.8,75,30.03,10.0,NNW,8.1,-,N/A,,Overcast,340,2012-11-04 16:17:00
11:46 AM,32.0,24.8,75,30.03,10.0,NW,9.2,-,N/A,,Overcast,320,2012-11-04 16:46:00
11:56 AM,32.0,25.0,75,30.09,10.0,NW,5.8,-,N/A,,Overcast,320,2012-11-04 16:56:00
12:56 PM,32.0,25.0,75,30.09,10.0,NW,9.2,-,N/A,,Overcast,320,2012-11-04 17:56:00
1:56 PM,33.1,25.0,72,30.08,10.0,NW,12.7,-,N/A,,Overcast,310,2012-11-04 18:56:00
2:21 PM,32.0,24.8,75,30.01,10.0,NW,9.2,-,N/A,,Overcast,320,2012-11-04 19:21:00
2:51 PM,32.0,24.8,75,30.01,10.0,NW,9.2,-,N/A,,Overcast,310,2012-11-04 19:51:00
2:56 PM,32.0,25.0,75,30.08,10.0,Variable,6.9,-,N/A,,Overcast,0,2012-11-04 19:56:00
3:56 PM,32.0,24.1,73,30.09,10.0,NNW,6.9,-,N/A,,Overcast,330,2012-11-04 20:56:00
4:56 PM,30.9,24.1,76,30.09,10.0,NW,6.9,-,N/A,,Overcast,310,2012-11-04 21:56:00
5:56 PM,30.9,21.9,69,30.10,10.0,NW,10.4,-,N/A,,Overcast,320,2012-11-04 22:56:00
6:56 PM,30.0,21.9,72,30.12,10.0,NW,8.1,-,N/A,,Overcast,320,2012-11-04 23:56:00
7:56 PM,30.0,21.9,72,30.12,10.0,NW,13.8,-,N/A,,Overcast,310,2012-11-05 00:56:00
8:56 PM,30.0,21.9,72,30.12,10.0,NNW,8.1,-,N/A,,Overcast,330,2012-11-05 01:56:00
9:56 PM,30.0,21.9,72,30.11,10.0,NNW,8.1,-,N/A,,Overcast,330,2012-11-05 02:56:00
10:56 PM,28.9,21.9,75,30.10,10.0,Variable,4.6,-,N/A,,Overcast,0,2012-11-05 03:56:00